EJA69 KTEB-KDSM

Flight info

Callsign EJA69
Flight time N/A
Altitude 43000
Route NEWEL J60 DJB CPONE JOT J60 IOW J10 DSM
Aircraft C750/M-SBDE3FGHRWXY/S

Departure

Time N/A
Airport Teterboro Airport (KTEB)

Arrival

Time 2026-04-21 17:28
Airport Des Moines International Airport (KDSM)
Time Latitude Longitude Altitude Speed Heading
2026-04-21 16:27 41.52282 -85.93981 43054 ft 480 kts 275°
2026-04-21 16:28 41.52481 -86.01438 43053 ft 480 kts 274°
2026-04-21 16:28 41.52669 -86.10297 43041 ft 480 kts 273°
2026-04-21 16:29 41.52813 -86.19215 43029 ft 480 kts 274°
2026-04-21 16:29 41.52980 -86.28112 43038 ft 479 kts 273°
2026-04-21 16:30 41.53120 -86.37010 43036 ft 479 kts 273°
2026-04-21 16:30 41.53267 -86.45926 43035 ft 480 kts 273°
2026-04-21 16:31 41.53397 -86.54819 43016 ft 480 kts 273°
2026-04-21 16:31 41.53526 -86.63711 43015 ft 479 kts 273°
2026-04-21 16:32 41.53645 -86.72547 43014 ft 479 kts 273°
2026-04-21 16:32 41.53759 -86.81434 43014 ft 479 kts 273°
2026-04-21 16:33 41.53866 -86.90344 43017 ft 479 kts 273°
2026-04-21 16:33 41.53966 -86.99236 43011 ft 479 kts 273°
2026-04-21 16:34 41.54059 -87.08140 43013 ft 480 kts 273°
2026-04-21 16:34 41.54145 -87.17046 43009 ft 480 kts 272°
2026-04-21 16:35 41.54224 -87.25888 42992 ft 480 kts 272°
2026-04-21 16:35 41.54297 -87.34801 42988 ft 479 kts 272°
2026-04-21 16:36 41.54363 -87.43723 43003 ft 481 kts 272°
2026-04-21 16:36 41.54422 -87.52648 43003 ft 481 kts 272°
2026-04-21 16:37 41.54474 -87.61569 43007 ft 480 kts 272°
2026-04-21 16:37 41.54519 -87.70510 43000 ft 481 kts 272°
2026-04-21 16:38 41.54557 -87.79369 42999 ft 480 kts 272°
2026-04-21 16:38 41.54589 -87.88309 42995 ft 480 kts 272°
2026-04-21 16:39 41.54613 -87.97238 43001 ft 480 kts 272°
2026-04-21 16:39 41.54631 -88.06160 43014 ft 481 kts 272°
2026-04-21 16:40 41.54641 -88.15064 42996 ft 479 kts 272°
2026-04-21 16:40 41.54645 -88.23957 42994 ft 479 kts 272°
2026-04-21 16:41 41.54643 -88.32796 42993 ft 479 kts 272°
2026-04-21 16:41 41.54698 -88.41685 42989 ft 479 kts 272°
2026-04-21 16:42 41.54741 -88.50593 42977 ft 479 kts 272°
2026-04-21 16:42 41.54773 -88.59504 42976 ft 480 kts 272°
2026-04-21 16:43 41.54805 -88.68411 42974 ft 479 kts 272°
2026-04-21 16:43 41.54823 -88.77252 42971 ft 479 kts 272°
2026-04-21 16:44 41.54840 -88.86152 42961 ft 480 kts 272°
2026-04-21 16:44 41.54845 -88.95017 42529 ft 469 kts 272°
2026-04-21 16:44 41.54846 -88.99310 42023 ft 456 kts 272°
2026-04-21 16:45 41.54846 -89.03494 41538 ft 445 kts 272°
2026-04-21 16:45 41.54845 -89.07586 41058 ft 434 kts 272°
2026-04-21 16:45 41.54841 -89.11571 40594 ft 424 kts 272°
2026-04-21 16:45 41.54837 -89.15467 40142 ft 415 kts 272°
2026-04-21 16:46 41.54832 -89.19282 39702 ft 408 kts 272°
2026-04-21 16:46 41.54826 -89.23050 39276 ft 404 kts 272°
2026-04-21 16:46 41.54819 -89.26799 38848 ft 404 kts 272°
2026-04-21 16:46 41.54811 -89.30575 38396 ft 409 kts 272°
2026-04-21 16:47 41.54800 -89.34397 37911 ft 414 kts 272°
2026-04-21 16:47 41.54787 -89.38253 37438 ft 416 kts 272°
2026-04-21 16:47 41.54773 -89.42077 36979 ft 417 kts 272°
2026-04-21 16:47 41.54759 -89.45993 36509 ft 417 kts 272°
2026-04-21 16:48 41.54743 -89.49817 36068 ft 416 kts 272°
2026-04-21 16:48 41.54726 -89.53675 35623 ft 417 kts 271°
2026-04-21 16:48 41.54707 -89.57542 35176 ft 417 kts 271°
2026-04-21 16:48 41.54688 -89.61418 34746 ft 417 kts 271°
2026-04-21 16:49 41.54667 -89.65284 34320 ft 416 kts 271°
2026-04-21 16:49 41.54644 -89.69150 33885 ft 416 kts 271°
2026-04-21 16:49 41.54620 -89.73026 33399 ft 417 kts 271°
2026-04-21 16:49 41.54595 -89.76905 32923 ft 419 kts 271°
2026-04-21 16:50 41.54569 -89.80803 32459 ft 421 kts 271°
2026-04-21 16:50 41.54541 -89.84728 31998 ft 423 kts 271°
2026-04-21 16:50 41.54511 -89.88661 31547 ft 424 kts 271°
2026-04-21 16:50 41.54480 -89.92607 31105 ft 426 kts 271°
2026-04-21 16:51 41.54448 -89.96516 30671 ft 428 kts 271°
2026-04-21 16:51 41.54415 -90.00508 30212 ft 429 kts 271°
2026-04-21 16:51 41.54379 -90.04508 29736 ft 432 kts 271°
2026-04-21 16:51 41.54341 -90.08509 29236 ft 428 kts 271°
2026-04-21 16:52 41.54303 -90.12449 28745 ft 423 kts 271°
2026-04-21 16:52 41.54265 -90.16370 28252 ft 420 kts 271°
2026-04-21 16:52 41.54227 -90.20243 27745 ft 417 kts 271°
2026-04-21 16:52 41.54186 -90.24097 27225 ft 413 kts 271°
2026-04-21 16:53 41.54142 -90.27923 26713 ft 410 kts 271°
2026-04-21 16:53 41.54099 -90.31709 26212 ft 406 kts 271°
2026-04-21 16:53 41.54057 -90.35476 25720 ft 404 kts 271°
2026-04-21 16:53 41.54014 -90.39159 25239 ft 401 kts 271°
2026-04-21 16:54 41.53968 -90.42865 24765 ft 397 kts 271°
2026-04-21 16:54 41.53922 -90.46539 24299 ft 394 kts 271°
2026-04-21 16:54 41.53875 -90.50187 23840 ft 392 kts 271°
2026-04-21 16:54 41.53828 -90.53808 23349 ft 389 kts 271°
2026-04-21 16:55 41.53779 -90.57396 22809 ft 384 kts 271°
2026-04-21 16:55 41.53731 -90.60944 22276 ft 380 kts 271°
2026-04-21 16:55 41.53682 -90.64454 21754 ft 376 kts 271°
2026-04-21 16:55 41.53631 -90.67921 21241 ft 373 kts 271°
2026-04-21 16:56 41.53581 -90.71362 20734 ft 369 kts 271°
2026-04-21 16:56 41.53530 -90.74772 20236 ft 365 kts 271°
2026-04-21 16:56 41.53479 -90.78147 19734 ft 363 kts 270°
2026-04-21 16:56 41.53499 -90.81493 19246 ft 359 kts 274°
2026-04-21 16:57 41.53751 -90.84806 18763 ft 355 kts 277°
2026-04-21 16:57 41.54018 -90.88063 18298 ft 352 kts 275°
2026-04-21 16:57 41.54164 -90.91283 17772 ft 350 kts 273°
2026-04-21 16:57 41.54285 -90.94550 17233 ft 347 kts 274°
2026-04-21 16:58 41.54458 -90.97757 16715 ft 345 kts 275°
2026-04-21 16:58 41.54644 -91.00905 16211 ft 343 kts 274°
2026-04-21 16:58 41.54807 -91.04069 15710 ft 340 kts 274°
2026-04-21 16:58 41.54957 -91.07217 15215 ft 338 kts 273°
2026-04-21 16:59 41.55114 -91.10337 14732 ft 336 kts 274°
2026-04-21 16:59 41.55275 -91.13436 14257 ft 333 kts 273°
2026-04-21 16:59 41.55432 -91.16511 13788 ft 332 kts 273°
2026-04-21 16:59 41.55584 -91.19592 13271 ft 331 kts 272°
2026-04-21 17:00 41.55735 -91.22644 12771 ft 327 kts 273°
2026-04-21 17:00 41.55885 -91.25659 12264 ft 323 kts 272°
2026-04-21 17:00 41.55982 -91.27631 11933 ft 321 kts 272°
2026-04-21 17:00 41.56176 -91.31602 11275 ft 317 kts 272°
2026-04-21 17:01 41.56317 -91.34463 10787 ft 301 kts 272°
2026-04-21 17:01 41.56450 -91.37192 10302 ft 289 kts 272°
2026-04-21 17:01 41.56575 -91.39802 10037 ft 271 kts 272°
2026-04-21 17:01 41.56696 -91.42355 10045 ft 288 kts 272°
2026-04-21 17:02 41.56826 -91.45153 10064 ft 311 kts 272°
2026-04-21 17:02 41.56965 -91.48045 10061 ft 314 kts 272°
2026-04-21 17:02 41.57106 -91.50932 10064 ft 315 kts 272°
2026-04-21 17:02 41.57244 -91.53900 10061 ft 319 kts 272°
2026-04-21 17:03 41.57379 -91.56828 10059 ft 320 kts 272°
2026-04-21 17:03 41.57518 -91.59799 10055 ft 319 kts 272°
2026-04-21 17:03 41.57656 -91.62765 10053 ft 320 kts 272°
2026-04-21 17:03 41.57793 -91.65733 10050 ft 320 kts 272°
2026-04-21 17:04 41.57928 -91.68704 10042 ft 321 kts 272°
2026-04-21 17:04 41.58063 -91.71676 10047 ft 320 kts 272°
2026-04-21 17:04 41.58198 -91.74648 10047 ft 320 kts 272°
2026-04-21 17:04 41.58332 -91.77615 10046 ft 320 kts 272°
2026-04-21 17:05 41.58463 -91.80579 10043 ft 321 kts 272°
2026-04-21 17:05 41.58595 -91.83557 10038 ft 321 kts 272°
2026-04-21 17:05 41.58727 -91.86533 10037 ft 320 kts 272°
2026-04-21 17:05 41.58858 -91.89505 10025 ft 320 kts 272°
2026-04-21 17:06 41.58988 -91.92486 10014 ft 325 kts 272°
2026-04-21 17:06 41.59119 -91.95503 10016 ft 325 kts 272°
2026-04-21 17:06 41.59249 -91.98525 10017 ft 325 kts 272°
2026-04-21 17:06 41.59379 -92.01541 10012 ft 324 kts 272°
2026-04-21 17:07 41.59463 -92.03528 10022 ft 324 kts 272°
2026-04-21 17:07 41.59632 -92.07515 10020 ft 324 kts 272°
2026-04-21 17:07 41.59759 -92.10532 10021 ft 325 kts 272°
2026-04-21 17:07 41.59883 -92.13475 9803 ft 307 kts 272°
2026-04-21 17:08 41.60003 -92.16365 9531 ft 325 kts 272°
2026-04-21 17:08 41.60131 -92.19542 9287 ft 357 kts 272°
2026-04-21 17:08 41.60269 -92.22888 9054 ft 362 kts 272°
2026-04-21 17:08 41.60409 -92.26257 8817 ft 363 kts 272°
2026-04-21 17:09 41.60681 -92.33042 8332 ft 368 kts 273°
2026-04-21 17:09 41.60817 -92.36452 8091 ft 367 kts 273°
2026-04-21 17:09 41.60953 -92.39864 7849 ft 364 kts 273°
2026-04-21 17:10 41.61078 -92.43094 7599 ft 332 kts 273°
2026-04-21 17:10 41.61193 -92.46014 7336 ft 291 kts 273°
2026-04-21 17:10 41.61295 -92.48649 7073 ft 284 kts 274°
2026-04-21 17:10 41.61394 -92.51261 6813 ft 278 kts 273°
2026-04-21 17:11 41.61492 -92.53817 6563 ft 273 kts 273°
2026-04-21 17:11 41.61588 -92.56326 6318 ft 269 kts 274°
2026-04-21 17:11 41.61680 -92.58807 6064 ft 266 kts 274°
2026-04-21 17:11 41.61774 -92.61262 5819 ft 264 kts 274°
2026-04-21 17:12 41.61867 -92.63701 5574 ft 261 kts 274°
2026-04-21 17:12 41.61956 -92.66120 5318 ft 259 kts 274°
2026-04-21 17:12 41.62044 -92.68514 5081 ft 257 kts 274°
2026-04-21 17:12 41.62132 -92.70906 4836 ft 257 kts 274°
2026-04-21 17:13 41.62221 -92.73290 4598 ft 257 kts 274°
2026-04-21 17:13 41.62306 -92.75676 4343 ft 256 kts 274°
2026-04-21 17:13 41.62393 -92.78055 4062 ft 257 kts 274°
2026-04-21 17:13 41.62480 -92.80409 3973 ft 248 kts 274°
2026-04-21 17:14 41.62531 -92.81909 3937 ft 240 kts 274°
2026-04-21 17:14 41.62635 -92.84798 3908 ft 230 kts 274°
2026-04-21 17:14 41.62709 -92.86898 3917 ft 224 kts 273°
2026-04-21 17:14 41.62756 -92.88292 3937 ft 220 kts 274°
2026-04-21 17:15 41.62848 -92.90957 3936 ft 211 kts 274°
2026-04-21 17:15 41.62892 -92.92243 3945 ft 208 kts 275°
2026-04-21 17:15 41.62961 -92.94162 3938 ft 205 kts 274°
2026-04-21 17:15 41.63029 -92.96062 3952 ft 204 kts 274°
2026-04-21 17:16 41.63092 -92.97958 3901 ft 203 kts 274°
2026-04-21 17:16 41.63155 -92.99821 3915 ft 199 kts 274°
2026-04-21 17:16 41.63217 -93.01657 3937 ft 199 kts 273°
2026-04-21 17:16 41.63281 -93.03496 3942 ft 198 kts 274°
2026-04-21 17:17 41.63342 -93.05327 3937 ft 197 kts 274°
2026-04-21 17:17 41.63404 -93.07154 3945 ft 197 kts 273°
2026-04-21 17:17 41.63467 -93.08994 3946 ft 195 kts 274°
2026-04-21 17:17 41.63528 -93.10799 3933 ft 192 kts 274°
2026-04-21 17:18 41.63585 -93.12567 3944 ft 190 kts 274°
2026-04-21 17:18 41.63642 -93.14315 3951 ft 186 kts 274°
2026-04-21 17:18 41.63701 -93.16038 3940 ft 187 kts 274°
2026-04-21 17:18 41.63758 -93.17781 3922 ft 188 kts 274°
2026-04-21 17:19 41.63812 -93.19530 3928 ft 189 kts 274°
2026-04-21 17:19 41.63870 -93.21264 3933 ft 187 kts 275°
2026-04-21 17:19 41.63926 -93.23009 3927 ft 187 kts 275°
2026-04-21 17:19 41.63980 -93.24723 3934 ft 187 kts 275°
2026-04-21 17:20 41.64037 -93.26473 3932 ft 187 kts 275°
2026-04-21 17:20 41.64091 -93.28213 3928 ft 188 kts 275°
2026-04-21 17:20 41.64146 -93.29945 3937 ft 184 kts 275°
2026-04-21 17:20 41.64200 -93.31646 3941 ft 180 kts 275°
2026-04-21 17:21 41.64253 -93.33300 3932 ft 176 kts 275°
2026-04-21 17:21 41.64302 -93.34910 3940 ft 172 kts 275°
2026-04-21 17:21 41.64353 -93.36509 3916 ft 173 kts 275°
2026-04-21 17:21 41.64402 -93.38107 3911 ft 174 kts 276°
2026-04-21 17:22 41.64450 -93.39697 3930 ft 169 kts 275°
2026-04-21 17:22 41.64498 -93.41266 3928 ft 170 kts 276°
2026-04-21 17:22 41.64547 -93.42823 3954 ft 168 kts 276°
2026-04-21 17:22 41.64585 -93.44398 3934 ft 170 kts 272°
2026-04-21 17:23 41.64251 -93.45922 3926 ft 175 kts 243°
2026-04-21 17:23 41.63537 -93.47248 3955 ft 175 kts 238°
2026-04-21 17:23 41.62820 -93.48560 3945 ft 173 kts 237°
2026-04-21 17:23 41.62122 -93.49846 3945 ft 169 kts 240°
2026-04-21 17:24 41.61433 -93.51110 3963 ft 166 kts 238°
2026-04-21 17:24 41.60731 -93.52388 3653 ft 175 kts 239°
2026-04-21 17:24 41.60024 -93.53625 3427 ft 163 kts 236°
2026-04-21 17:24 41.59323 -93.54812 3188 ft 160 kts 234°
2026-04-21 17:25 41.58646 -93.55949 3023 ft 154 kts 235°
2026-04-21 17:25 41.58022 -93.57093 2838 ft 151 kts 241°
2026-04-21 17:25 41.57482 -93.58259 2695 ft 144 kts 241°
2026-04-21 17:25 41.56972 -93.59393 2471 ft 142 kts 239°
2026-04-21 17:26 41.56388 -93.60426 2326 ft 136 kts 234°
2026-04-21 17:26 41.55789 -93.61419 2056 ft 139 kts 234°
2026-04-21 17:26 41.55215 -93.62427 1760 ft 132 kts 234°
2026-04-21 17:26 41.54695 -93.63435 1383 ft 138 kts 237°
2026-04-21 17:27 41.54113 -93.64497 995 ft 150 kts 234°
2026-04-21 17:27 41.53554 -93.65506 913 ft 116 kts 236°
2026-04-21 17:27 41.53194 -93.66161 913 ft 72 kts 233°
2026-04-21 17:27 41.52921 -93.66649 903 ft 60 kts 232°
2026-04-21 17:28 41.52753 -93.66884 904 ft 20 kts 175°
2026-04-21 17:28 41.52720 -93.66779 909 ft 10 kts 58°
2026-04-21 17:28 41.52734 -93.66754 909 ft 0 kts 52°
2026-04-21 17:32 41.52753 -93.66719 909 ft 10 kts 53°
2026-04-21 17:32 41.52846 -93.66542 907 ft 30 kts 57°
2026-04-21 17:32 41.52957 -93.66339 910 ft 25 kts 51°
2026-04-21 17:32 41.52944 -93.66196 913 ft 16 kts 153°
2026-04-21 17:33 41.52873 -93.66149 917 ft 0 kts 153°
2026-04-21 17:42 41.52853 -93.66142 921 ft 10 kts 187°
2026-04-21 17:42 41.52873 -93.66162 923 ft 26 kts 354°
2026-04-21 17:42 41.53362 -93.66501 926 ft 123 kts 325°
2026-04-21 17:42 41.54223 -93.67179 1122 ft 165 kts 323°
2026-04-21 17:43 41.55273 -93.68153 1302 ft 208 kts 310°
2026-04-21 17:43 41.55829 -93.70047 1660 ft 237 kts 274°
2026-04-21 17:43 41.55754 -93.72327 1849 ft 240 kts 256°
2026-04-21 17:43 41.54732 -93.73883 2237 ft 221 kts 207°
2026-04-21 17:44 41.53205 -93.74008 2214 ft 231 kts 166°
2026-04-21 17:44 41.52029 -93.72743 2798 ft 207 kts 123°
2026-04-21 17:44 41.51506 -93.71112 2758 ft 180 kts 111°
2026-04-21 17:44 41.51208 -93.69611 2343 ft 157 kts 99°
2026-04-21 17:45 41.51695 -93.68375 1599 ft 278 kts 33°
2026-04-21 17:45 41.52856 -93.67005 1591 ft 518 kts 61°
2026-04-21 17:45 41.54112 -93.65442 1871 ft 215 kts 25°
2026-04-21 17:45 41.55387 -93.64587 1389 ft 204 kts 19°
2026-04-21 17:46 41.55787 -93.64351 963 ft 208 kts 21°